Change the Weather History Date:

Tuesday, July 9, 2013

  Actual Average Record
Temperature  
Mean Temperature 74 °F 68 °F  
Max Temperature 90 °F 83 °F 95 °F (1976)
Min Temperature 57 °F 53 °F 43 °F (2010)
Degree Days  
Heating Degree Days 0 1  
Month to date heating degree days 0 12  
Since 1 June heating degree days 62 179  
Since 1 July heating degree days 0 12  
Cooling Degree Days 9 4  
Month to date cooling degree days 62 32  
Year to date cooling degree days 156 68  
Since 1 June cooling degree days 155 67  
Growing Degree Days 23 (Base 50)    
Moisture  
Dew Point 36 °F    
Average Humidity 33    
Maximum Humidity 55    
Minimum Humidity 11    
Precipitation  
Precipitation T in 0.02 in 0.39 in (1984)
Month to date precipitation 0.18 0.17  
Year to date precipitation 1.67 4.69  
Sea Level Pressure  
Sea Level Pressure 30.04 in    
Wind  
Wind Speed 5 mph (WNW)    
Max Wind Speed 32 mph    
Max Gust Speed 55 mph    
Visibility 10 miles    
Events Rain    
T = Trace of Precipitation, MM = Missing Value Source: NWS Daily Summary

Daily Weather History Graph

Daily Weather History Graph

Search for Another Location

Airport or City:

Trip Planner

Search our weather history database for the weather conditions in past years. The results will help you decide how hot, cold, wet, or windy it might be!

Date:

Astronomy

Jul. 09, 2013 Rise Set
Actual Time 5:50 AM MDT 8:51 PM MDT
Civil Twilight 5:17 AM MDT 9:25 PM MDT
Nautical Twilight 4:34 AM MDT 10:07 PM MDT
Astronomical Twilight 3:44 AM MDT 10:57 PM MDT
Moon 7:20 AM MDT (7/9) 9:28 PM MDT (7/9)
Length of Visible Light 16h 07m
Length of Day
15h 00m
New Moon, 2% of the Moon is Illuminated
Jul 9
New Moon
Jul 15
First Quarter
Jul 22
Full
Jul 29
Last Quarter
Aug 6
New

Hourly Weather History & Observations

Time (MDT) Temp. Dew Point Humidity Pressure Visibility Wind Dir Wind Speed Gust Speed Precip Events Conditions
12:54 AM 64.9 °F 42.1 °F 43% 30.01 in 10.0 mi Calm Calm - N/A   Clear
1:54 AM 62.1 °F 42.1 °F 48% 30.02 in 10.0 mi WNW 3.5 mph - N/A   Clear
2:54 AM 62.1 °F 42.1 °F 48% 30.02 in 10.0 mi Calm Calm - N/A   Clear
3:54 AM 60.1 °F 42.1 °F 51% 30.03 in 10.0 mi South 3.5 mph - N/A   Clear
4:54 AM 57.9 °F 41.0 °F 53% 30.04 in 10.0 mi Calm Calm - N/A   Clear
5:54 AM 59.0 °F 43.0 °F 55% 30.06 in 10.0 mi Calm Calm - N/A   Clear
6:54 AM 57.9 °F 39.0 °F 49% 30.09 in 10.0 mi South 4.6 mph - N/A   Clear
7:54 AM 64.9 °F 41.0 °F 42% 30.09 in 10.0 mi Calm Calm - N/A   Clear
8:54 AM 68.0 °F 42.1 °F 39% 30.09 in 10.0 mi NE 5.8 mph - N/A   Clear
9:54 AM 69.1 °F 42.1 °F 38% 30.12 in 10.0 mi North 3.5 mph - 0.00 in   Mostly Cloudy
10:54 AM 79.0 °F 36.0 °F 21% 30.07 in 10.0 mi SW 3.5 mph - N/A   Clear
11:54 AM 82.0 °F 33.1 °F 17% 30.06 in 10.0 mi Variable 4.6 mph - N/A   Clear
12:54 PM 87.1 °F 30.9 °F 13% 30.02 in 10.0 mi West 9.2 mph 19.6 mph N/A   Clear
1:54 PM 88.0 °F 30.0 °F 12% 30.01 in 10.0 mi WNW 6.9 mph 21.9 mph N/A   Partly Cloudy
2:54 PM 88.0 °F 28.9 °F 12% 30.00 in 10.0 mi West 11.5 mph 25.3 mph N/A   Clear
3:54 PM 89.1 °F 28.9 °F 12% 29.99 in 10.0 mi West 13.8 mph 20.7 mph N/A   Clear
4:54 PM 87.1 °F 28.0 °F 12% 29.99 in 10.0 mi West 4.6 mph 17.3 mph N/A   Clear
5:54 PM 87.1 °F 28.0 °F 12% 29.98 in 10.0 mi WNW 10.4 mph - N/A   Clear
6:54 PM 84.0 °F 30.0 °F 14% 29.99 in 10.0 mi North 6.9 mph - N/A   Clear
7:41 PM 80.6 °F 35.6 °F 20% 30.27 in 9.0 mi Variable 4.6 mph 55.2 mph 0.00 in Rain Light Rain
7:54 PM 79.0 °F 36.0 °F 21% 30.01 in 10.0 mi SSE 10.4 mph 43.7 mph 0.00 in Rain Light Rain
8:54 PM 73.9 °F 39.0 °F 28% 30.01 in 10.0 mi NE 8.1 mph - 0.00 in   Partly Cloudy
9:54 PM 75.9 °F 35.1 °F 23% 30.01 in 10.0 mi North 4.6 mph - N/A   Clear
10:54 PM 72.0 °F 37.0 °F 28% 30.00 in 10.0 mi Calm Calm - N/A   Clear
11:54 PM 66.9 °F 36.0 °F 32% 30.02 in 10.0 mi WNW 5.8 mph - N/A   Clear